ASTRO-H (HITOMI)

Last updated on Mon Sep 21 2026 00:02:09 GMT+0000 (Coordinated Universal Time)

1 41337U 16012A 26263.44220284 .00001896 00000+0 10545-3 0 9994 2 41337 30.9982 178.8159 0009351 133.0852 227.0570 15.10884349581707
UTC large
Height (km)
Speed (km/s)
/
Latitude / Longitude
Inclination (degrees)
Orbital Period (minutes)
Azimuth
Elevation
Range (km)
Doppler Factor

Next 0 passes for location: London (51.5072 / 0.1276)

No passes found over London.
ASTRO-H (HITOMI)